This demonstration page uses our WeatherBlox Daily Observations layout. Learn more.

Left ArrowRight Arrow

39.01783, -85.05884

Hourly Observations for August 17, 2017

Temp ( °F °C ) Dew Point ( °F °C ) Humidity (%) Winds ( mph kmh ) Pressure ( in mb ) Visibility ( mi km ) Precip ( " mm )
12:52 am 00:52 Partly Cloudy 76 24.4 73 22.8 91 91 S 8 13 29.95 1014 10 16 0.00 0.00
1:52 am 01:52 Partly Cloudy 75 23.9 73 22.8 94 94 S 7 11 29.93 1014 10 16 0.00 0.00
2:52 am 02:52 Partly Cloudy 75 23.9 72 22.2 90 90 S 7 11 29.91 1013 10 16 0.00 0.00
3:52 am 03:52 Partly Cloudy 74 23.3 72 22.2 94 94 S 7 11 29.90 1013 10 16 0.00 0.00
4:52 am 04:52 Mostly Cloudy 74 23.3 72 22.2 94 94 SSW 7 11 29.91 1013 10 16 0.00 0.00
5:52 am 05:52 Partly Cloudy 74 23.3 73 22.8 97 97 S 9 15 29.91 1013 10 16 0.00 0.00
6:52 am 06:52 Mostly Clear 74 23.3 73 22.8 97 97 S 8 13 29.92 1013 10 16 0.00 0.00
7:52 am 07:52 Partly Cloudy 75 23.9 74 23.3 96 96 SSW 8 13 29.93 1014 10 16 0.00 0.00
8:22 am 08:22 Mostly Cloudy 76 24.4 75 23.9 97 97 SSW 9 15 29.94 1014 9 14 0.00 0.00
8:42 am 08:42 Mostly Cloudy 77 25 75 23.9 94 94 SW 8 13 29.94 1014 8 13 0.00 0.00
8:52 am 08:52 Partly Cloudy 77 25 76 24.4 96 96 SW 9 15 29.94 1014 8 13 0.00 0.00
9:52 am 09:52 Mostly Sunny 81 27.2 77 25 88 88 SSW 12 19 29.93 1013 10 16 0.00 0.00
10:25 am 10:25 Mostly Cloudy 83 28.3 77 25 82 82 SW 8 13 29.88 1012 9 14 0.00 0.00
10:52 am 10:52 Mostly Cloudy 82 27.8 77 25 85 85 SSW 14 22 29.91 1013 10 16 0.00 0.00
11:30 am 11:30 Mostly Cloudy 84 28.9 76 24.4 77 77 SW 13 20 29.88 1012 9 14 0.00 0.00
11:52 am 11:52 Mostly Cloudy 84 28.9 77 25 80 80 SSW 14 22 29.90 1013 9 14 0.00 0.00
12:52 pm 12:52 Mostly Cloudy 87 30.6 75 23.9 67 67 S 20 31 29.87 1011 10 16 0.00 0.00
1:52 pm 13:52 Mostly Cloudy 86 30 73 22.8 65 65 SSW 15 24 29.85 1011 10 16 0.00 0.00
2:37 pm 14:37 Mostly Cloudy with Nearby Thunderstorms 87 30.6 73 22.8 63 63 S 17 28 29.80 1009 10 16 0.00 0.00
2:52 pm 14:52 Cloudy with Nearby Thunderstorms 86 30 73 22.8 65 65 SW 14 22 29.83 1010 10 16 0.00 0.00
3:00 pm 15:00 Windy with Storms Likely 79 26.1 75 23.9 88 88 WNW 20 31 29.83 1010 8 13 0.00 0.03
3:10 pm 15:10 Windy with Storms Likely 76 24.4 76 24.4 100 100 WNW 22 35 29.85 1011 5 8 0.03 0.76
3:13 pm 15:13 Cloudy with Strong Thunderstorms 76 24.4 76 24.4 100 100 W 17 28 29.85 1011 2 3 0.04 1.02
3:20 pm 15:20 Cloudy with Strong Thunderstorms 75 24 75 24 100 100 W 20 31 29.85 1011 2 2 0.12 3.05
3:31 pm 15:31 Cloudy with Thunderstorms 75 23.9 75 23.9 100 100 SSW 12 19 29.85 1011 5 8 0.31 7.87
3:52 pm 15:52 Cloudy with Thunderstorms 76 24.4 76 24.4 100 100 SW 8 13 29.85 1011 8 13 0.32 8.13
4:15 pm 16:15 Cloudy 76 24.4 76 24.4 100 100 S 8 13 29.85 1011 10 16 0.00 0.03
4:52 pm 16:52 Mostly Cloudy 76 24.4 75 23.9 97 97 S 7 11 29.84 1011 10 16 0.00 0.03
5:52 pm 17:52 Mostly Cloudy 80 26.7 76 24.4 87 87 SSW 12 19 29.83 1010 10 16 0.00 0.00
6:52 pm 18:52 Cloudy with Light Rain 79 26.1 76 24.4 90 90 SSW 10 17 29.83 1010 8 13 0.00 0.03
7:52 pm 19:52 Cloudy 78 25.6 76 24.4 93 93 S 9 15 29.84 1010 10 16 0.00 0.03
8:15 pm 20:15 Cloudy with Thunderstorms 77 25 76 24.4 96 96 S 13 20 29.85 1011 6 10 0.00 0.03
8:45 pm 20:45 Cloudy with Heavy Rain 76 24.4 76 24.4 100 100 SW 10 17 29.85 1011 4 6 0.13 3.30
8:52 pm 20:52 Cloudy with Heavy Rain 76 24.4 76 24.4 100 100 SW 9 15 29.85 1011 3 5 0.16 4.06
9:03 pm 21:03 Cloudy with Light Rain 75 23.9 75 23.9 100 100 SW 7 11 29.85 1011 7 11 0.07 1.78
9:25 pm 21:25 Cloudy 75 23.9 75 23.9 100 100 S 6 9 29.85 1011 9 14 0.07 1.78
9:52 pm 21:52 Cloudy 74 23.3 74 23.3 100 100 S 6 9 29.85 1011 10 16 0.07 1.78
10:52 pm 22:52 Partly Cloudy 73 22.8 73 22.8 100 100 SW 5 7 29.85 1011 9 14 0.00 0.00
11:52 pm 23:52 Mostly Cloudy 73 22.8 73 22.8 100 100 SSW 7 11 29.85 1011 10 16 0.00 0.00

Powered by AerisWeather